Simultaneous Nadir Overpasses (SNOs) Predictions

Prediction of SNOs between AQUA and GOES-15 Satellite Orbit:

Table of predicted SNOs for the next 14.0 days since TLE Epoch: 7/17/2020
Index Date Time (AQUA) AQUA Lat,Lon GOES-15 Lat,Lon Distance(km) Time Diff (sec)
1 07/18/2020 21:58:08 0.52,-125.68 -0.02,-128.36 304.02 80
2 07/19/2020 10:19:25 0.52,-130.85 0.02,-128.41 276.98 80
3 07/21/2020 10:07:14 -0.12,-127.90 0.02,-128.42 59.29 80
4 07/23/2020 09:55:02 -0.69,-124.93 0.03,-128.41 395.40 80
5 07/23/2020 22:16:26 -0.40,-130.12 -0.03,-128.36 200.35 80
6 07/25/2020 22:04:15 0.24,-127.17 -0.03,-128.36 135.27 80
7 07/26/2020 10:25:31 0.86,-132.33 0.03,-128.41 445.78 80
8 07/27/2020 21:52:04 0.88,-124.22 -0.03,-128.35 470.39 80
9 07/28/2020 10:13:20 0.22,-129.38 0.02,-128.40 110.86 80
10 07/30/2020 10:01:09 -0.43,-126.42 -0.02,-128.38 222.61 80
11 07/30/2020 22:22:33 -0.67,-131.62 0.02,-128.32 373.87 80
